Flag for U.S.A. Weather past 2 weeks in Missoula, Montana, U.S.A.

Now
72 °F

Clear.


Feels Like: 76 °F
Forecast: 55 / 69 °F
Wind: 9 mph from North

Location: Missoula International Airport

Current Time: Aug 29, 2014 at 10:46:02 PM

Latest Report: Aug 29, 2014 at 9:53 PM


Visibility: 10 mi

Pressure: 29.78 "Hg

Humidity: 28%

Dew point: 37 °F

Location of MissoulaLocation

Historic Weather in Missoula — Graph

°F

Missoula temperature yesterday

Maximum temperature yesterday: 87 °F (at 3:53 PM)
Minimum temperature yesterday: 51 °F (at 6:53 AM)
Average temperature yesterday: 68 °F

Past Weeks' High & Low Weather Summary

 TemperatureHumidityPressure
High90 °F (Aug 19, 3:53 PM)97% (Aug 16, 6:53 AM)30.19 "Hg (Aug 16, 6:53 AM)
Low43 °F (Aug 25, 6:53 AM)12% (Aug 19, 3:53 PM)29.64 "Hg (Aug 19, 4:53 PM)
Average64 °F60%30.00 "Hg
* Reported Aug 14 9:53 PM — Aug 29 9:53 PM, Missoula, Weather by CustomWeather, © 2014

Note: Actual official high and low records may vary slightly from our data, if they occured in-between our weather recording intervals... More about our weather records

Advertising

Missoula weather history for previous 24 hours

 ConditionsComfort  
Time TempWeatherWind HumidityBarometerVisibility
9:53 PM
Aug 29
72 °FClear.9 mph28%29.78 "Hg10 mi
8:53 PM73 °FSunny.5 mph27%29.78 "Hg10 mi
7:53 PM79 °FSunny.8 mph21%29.76 "Hg10 mi
6:53 PM84 °FSunny.22 mph14%29.77 "Hg10 mi
5:53 PM86 °FSunny.14 mph15%29.78 "Hg10 mi
4:53 PM86 °FSunny.3 mph16%29.78 "Hg10 mi
3:53 PM84 °FSunny.5 mph18%29.80 "Hg10 mi
2:53 PM81 °FSunny.3 mph21%29.83 "Hg10 mi
12:53 PM77 °FSunny.7 mph29%29.90 "Hg10 mi
11:53 AM72 °FSunny.No wind38%29.95 "Hg10 mi
10:53 AM67 °FSunny.3 mph47%29.98 "Hg10 mi
9:53 AM61 °FSunny.No wind56%30.00 "Hg10 mi
8:53 AM56 °FSunny.No wind67%30.02 "Hg10 mi
7:53 AM53 °FSunny.No wind74%30.02 "Hg10 mi
6:53 AM48 °FClear.No wind80%30.02 "Hg10 mi
5:53 AM50 °FClear.No wind74%30.01 "Hg10 mi
4:53 AM54 °FClear.No wind64%30.00 "Hg10 mi
3:53 AM55 °FClear.No wind62%29.98 "Hg10 mi
2:53 AM56 °FClear.No wind60%29.98 "Hg10 mi
1:53 AM58 °FClear.No wind58%29.98 "Hg10 mi
12:53 AM60 °FClear.No wind52%29.98 "Hg10 mi
11:53 PM
Aug 28
61 °FClear.6 mph50%29.98 "Hg10 mi
10:53 PM68 °FClear.6 mph38%29.97 "Hg10 mi
Weather by CustomWeather, © 2014

See weather overviewHow to use our weather pages